Location: Kampung Segan
(3.1399°N, 113.1002°E)
Time: 13:52:18
(UTC+00:00)

ERS-1 - Pass Details

Date: 05 August 2024
Orbit: 739 x 786 km, 98.8° (Epoch: 09 September)

Event Time Altitude Azimuth Distance (km) Brightness Sun altitude
Rises 21:36:23 0° 9° (N) 3,163 8.1 -12.7°
Reaches altitude 10° 21:38:39 10° 7° (N) 2,245 7.3 -12.2°
Maximum altitude 21:43:34 74° 283° (WNW) 776 4.4 -11.0°
Drops below altitude 10° 21:48:33 10° 198° (SSW) 2,276 6.6 -9.8°
Sets 21:50:52 0° 196° (SSW) 3,209 7.4 -9.3°
